Location: Hains Lake
(37.8540°N, 99.8578°W)
Time: 04:50:20
(UTC+00:00)

Vanguard 2 Rocket - Pass Details

Date: 25 April 2021
Orbit: 553 x 3326 km, 32.9° (Epoch: 07 May)

Event Time Altitude Azimuth Distance (km) Brightness Sun altitude
Rises 20:13:29 0° 259° (W) 6,093 11.5 57.6°
Reaches altitude 10° 20:17:00 10° 258° (WSW) 5,368 11.4 57.1°
Maximum altitude 20:34:40 76° 177° (S) 3,351 11.0 54.3°
Drops below altitude 10° 20:54:39 10° 96° (E) 5,958 10.8 51.0°
Sets 20:58:48 0° 95° (E) 6,760 11.0 50.3°
